This is the latest recevied weather packets stored in our database for station/object SQ9NFI-4. If no packets are shown the sender has not sent any weather packets the latest 1 day(s).
| Time | Temp. | Humidity | Pressure | Rain* | Wind** | Luminosity | Snow |
|---|---|---|---|---|---|---|---|
| 1778065778 | 25.56° C | 37% | 1008.1 hPa | 0 mm | - | 700 W/m² | - |
| 1778065478 | 25.56° C | 36% | 1008.1 hPa | 0 mm | - | 768 W/m² | - |
| 1778065178 | 25.56° C | 38% | 1008.1 hPa | 0 mm | - | 702 W/m² | - |
| 1778064878 | 25.56° C | 39% | 1008.1 hPa | 0 mm | - | 791 W/m² | - |
| 1778064578 | 24.44° C | 41% | 1008.1 hPa | 0 mm | - | 754 W/m² | - |
| 1778064278 | 24.44° C | 41% | 1008.5 hPa | 0 mm | - | 799 W/m² | - |
| 1778063978 | 25° C | 43% | 1008.5 hPa | 0 mm | - | 545 W/m² | - |
| 1778063678 | 23.89° C | 44% | 1008.5 hPa | 0 mm | - | 391 W/m² | - |
| 1778063378 | 23.89° C | 43% | 1008.5 hPa | 0 mm | - | 447 W/m² | - |
| 1778062778 | 24.44° C | 42% | 1008.1 hPa | 0 mm | - | 365 W/m² | - |
| 1778062478 | 24.44° C | 41% | 1008.1 hPa | 0 mm | - | 518 W/m² | - |
| 1778062178 | 25.56° C | 41% | 1008.1 hPa | 0 mm | - | 606 W/m² | - |
| 1778061878 | 25° C | 43% | 1008.1 hPa | 0 mm | - | 793 W/m² | - |
| 1778061578 | 24.44° C | 42% | 1008.1 hPa | 0 mm | - | 708 W/m² | - |
| 1778061278 | 24.44° C | 43% | 1008.1 hPa | 0 mm | - | 734 W/m² | - |
| 1778060978 | 24.44° C | 43% | 1008.1 hPa | 0 mm | - | 717 W/m² | - |
| 1778060678 | 23.89° C | 45% | 1008.1 hPa | 0 mm | - | 711 W/m² | - |
| 1778060378 | 23.33° C | 46% | 1008.1 hPa | 0 mm | - | 685 W/m² | - |
| 1778060078 | 23.33° C | 46% | 1008.1 hPa | 0 mm | - | 683 W/m² | - |
| 1778059778 | 23.33° C | 45% | 1008.1 hPa | 0 mm | - | 688 W/m² | - |
| 1778059478 | 23.89° C | 46% | 1008.1 hPa | 0 mm | - | 674 W/m² | - |
| 1778059178 | 23.89° C | 46% | 1008.1 hPa | 0 mm | - | 680 W/m² | - |
| 1778058878 | 23.33° C | 46% | 1008.1 hPa | 0 mm | - | 648 W/m² | - |
| 1778058578 | 23.33° C | 47% | 1008.1 hPa | 0 mm | - | 643 W/m² | - |
| 1778058278 | 23.33° C | 46% | 1008.1 hPa | 0 mm | - | 609 W/m² | - |
* Rain latest hour (hover to see other rain measurements)
** Current wind speed in m/s (hover to see current wind gust speed)